Location: Molveno
(46.1500°N, 10.9667°E)
Time: 01:34:33
(UTC+00:00)

Cosmos 1709 Rocket - Pass Details

Date: 05 July 2020
Orbit: 948 x 1002 km, 82.9° (Epoch: 11 August)

Event Time Altitude Azimuth Distance (km) Brightness Sun altitude
Exits shadow 20:24:12 - 179° (S) 3,278 6.3 -10.4°
Reaches altitude 10° 20:25:39 10° 178° (S) 2,731 5.9 -10.6°
Maximum altitude 20:31:54 73° 95° (E) 1,036 4.0 -11.3°
Drops below altitude 10° 20:38:15 10° 12° (NNE) 2,778 7.0 -11.9°
Sets 20:40:49 0° 11° (N) 3,735 7.7 -12.2°
